Terminal Aerodrome Forecast
Issued by NWS Memphis, TN

Home | Current Version | Previous Version | Text Only | Print | Product List | Glossary On
Versions: 1 2 3 4 5 6 7 8 9 10 11 12
672
FTUS44 KMEG 110530
TAFMKL
TAF
KMKL 110530Z 1106/1206 12003KT P6SM BKN060 OVC100
     FM110900 16007KT P6SM OVC050
     FM111800 17010G20KT P6SM OVC040
     FM120300 19012KT P6SM SHRA OVC020=

USA.gov is the U.S. government's official web portal to all federal, state and local government web resources and services.